Location: Johnson City
(36.3130°N, 82.3540°W)
Time: 00:32:24
(UTC-04:00)

ISS - Visible Passes

Search period start: 02 October 2022 00:00
Search period end: 12 October 2022 00:00
Orbit: 415 x 420 km, 51.6° (Epoch: 02 October)

Date Brightness Start Highest point End Pass type
(mag) Time Alt. Az. Time Alt. Az. Time Alt. Az.
02 Oct -2.1 19:57:39 10° NNW 20:00:17 21° NNE 20:01:57 15° ENE visible
02 Oct -0.8 21:33:58 10° WNW 21:34:53 17° WNW 21:34:53 17° WNW visible
03 Oct -3.8 20:45:40 10° NW 20:48:54 80° W 20:48:54 80° W visible
04 Oct -3.5 19:57:28 10° NW 20:00:45 51° NE 20:02:58 18° ESE visible
04 Oct -0.5 21:35:28 10° W 21:35:54 11° WSW 21:35:54 11° WSW visible
05 Oct -1.8 20:46:11 10° WNW 20:48:58 24° SW 20:50:03 20° SSW visible
06 Oct -2.8 19:57:24 10° WNW 20:00:37 46° SW 20:03:50 10° SSE visible
08 Oct -0.8 19:57:59 10° W 19:59:55 15° SW 20:01:50 10° SSW visible
